When you browse on this site, cookies collect data to enhance your experience and personalize the content and advertising you see.
Visit our Privacy Policy to learn more. By continuing to use the site, you agree to this use of cookies and data.
  • In United Kingdom
  • List of Countries
  • For 7 days
  • Water Temperature
  • Weather Map
  • Weather Widgets
  • user-avatar
    Login

    Hourly Weather Havza

    Today, 21 August, Wednesday

    Time Temperature Precipitation Wind Pressure Humidity
    00:00 +19°C° 0.2 mm 1 mps 704 mmHg 94%
    01:00 +19°C° 0.2 mm 1 mps 704 mmHg 94%
    02:00 +19°C° 0.2 mm 1 mps 704 mmHg 94%
    03:00 +19°C° 0 mm 1 mps 703 mmHg 95%
    04:00 +19°C° 0 mm 1 mps 703 mmHg 95%
    05:00 +19°C° 0 mm 1 mps 703 mmHg 95%
    06:00 +19°C° 0.1 mm 1 mps 703 mmHg 92%
    07:00 +20°C° 0.1 mm 1 mps 703 mmHg 89%
    08:00 +21°C° 0.1 mm 1 mps 704 mmHg 86%
    09:00 +22°C° 0.3 mm 1 mps 704 mmHg 81%
    10:00 +23°C° 0.3 mm 1 mps 703 mmHg 77%
    11:00 +24°C° 0.3 mm 1 mps 703 mmHg 73%
    12:00 +24°C° 0.3 mm 2 mps 703 mmHg 72%
    13:00 +25°C° 0.3 mm 2 mps 703 mmHg 72%
    14:00 +25°C° 0.3 mm 3 mps 703 mmHg 71%
    15:00 +25°C° 0.5 mm 3 mps 703 mmHg 74%
    16:00 +24°C° 0.5 mm 3 mps 703 mmHg 76%
    17:00 +24°C° 0.5 mm 3 mps 703 mmHg 78%
    18:00 +23°C° 0.5 mm 2 mps 703 mmHg 83%
    19:00 +21°C° 0.5 mm 2 mps 703 mmHg 88%
    20:00 +21°C° 0.5 mm 1 mps 703 mmHg 92%
    21:00 +20°C° 0.6 mm 1 mps 703 mmHg 92%
    22:00 +20°C° 0.6 mm 1 mps 703 mmHg 92%
    23:00 +18°C° 0.6 mm 0 mps 702 mmHg 93%

    Tomorrow, 22 August, Thursday

    Time Temperature Precipitation Wind Pressure Humidity
    00:00 +18°C° 0.3 mm 0 mps 702 mmHg 93%
    01:00 +17°C° 0.3 mm 0 mps 702 mmHg 94%
    02:00 +17°C° 0.3 mm 0 mps 702 mmHg 95%
    03:00 +17°C° 0.5 mm 0 mps 702 mmHg 95%
    04:00 +17°C° 0.5 mm 0 mps 702 mmHg 95%
    05:00 +17°C° 0.5 mm 0 mps 702 mmHg 94%
    06:00 +20°C° 0.2 mm 1 mps 703 mmHg 89%
    07:00 +21°C° 0.2 mm 1 mps 703 mmHg 83%
    08:00 +23°C° 0.2 mm 1 mps 703 mmHg 77%
    09:00 +24°C° 0.2 mm 1 mps 703 mmHg 71%
    10:00 +25°C° 0.2 mm 2 mps 703 mmHg 65%
    11:00 +26°C° 0.2 mm 2 mps 704 mmHg 59%
    12:00 +27°C° 0.2 mm 2 mps 704 mmHg 56%
    13:00 +28°C° 0.2 mm 3 mps 704 mmHg 54%
    14:00 +28°C° 0.2 mm 3 mps 704 mmHg 51%
    15:00 +27°C° 0.4 mm 3 mps 703 mmHg 55%
    16:00 +27°C° 0.4 mm 3 mps 703 mmHg 60%
    17:00 +26°C° 0.4 mm 3 mps 703 mmHg 64%
    18:00 +24°C° 0.3 mm 2 mps 703 mmHg 70%
    19:00 +23°C° 0.3 mm 1 mps 703 mmHg 75%
    20:00 +21°C° 0.3 mm 1 mps 704 mmHg 81%
    21:00 +21°C° 0 mm 1 mps 704 mmHg 81%
    22:00 +21°C° 0 mm 1 mps 703 mmHg 80%
    23:00 +20°C° 0 mm 1 mps 703 mmHg 80%

    Day after tomorrow, 23 August, Friday

    Time Temperature Precipitation Wind Pressure Humidity
    00:00 +20°C° 0 mm 1 mps 703 mmHg 81%
    01:00 +19°C° 0 mm 1 mps 703 mmHg 82%
    02:00 +19°C° 0 mm 1 mps 703 mmHg 83%
    03:00 +19°C° 0 mm 1 mps 703 mmHg 83%
    04:00 +19°C° 0 mm 1 mps 703 mmHg 83%
    05:00 +18°C° 0 mm 1 mps 703 mmHg 83%
    06:00 +20°C° 0 mm 1 mps 703 mmHg 76%
    07:00 +22°C° 0 mm 1 mps 704 mmHg 68%
    08:00 +24°C° 0 mm 1 mps 704 mmHg 61%
    09:00 +25°C° 0 mm 2 mps 704 mmHg 56%
    10:00 +26°C° 0 mm 2 mps 704 mmHg 52%
    11:00 +28°C° 0 mm 3 mps 705 mmHg 48%
    12:00 +28°C° 0 mm 3 mps 705 mmHg 48%
    13:00 +29°C° 0 mm 4 mps 704 mmHg 48%
    14:00 +29°C° 0 mm 4 mps 704 mmHg 48%
    15:00 +28°C° 0 mm 4 mps 704 mmHg 52%
    16:00 +27°C° 0 mm 4 mps 704 mmHg 57%
    17:00 +26°C° 0 mm 4 mps 704 mmHg 61%
    18:00 +24°C° 0 mm 3 mps 704 mmHg 69%
    19:00 +21°C° 0 mm 2 mps 704 mmHg 77%
    20:00 +21°C° 0 mm 1 mps 704 mmHg 84%
    21:00 +20°C° 0 mm 1 mps 704 mmHg 85%
    22:00 +20°C° 0 mm 1 mps 704 mmHg 85%
    23:00 +20°C° 0 mm 1 mps 704 mmHg 85%

    24 August, Saturday

    Time Temperature Precipitation Wind Pressure Humidity
    00:00 +20°C° 0 mm 1 mps 704 mmHg 86%
    01:00 +19°C° 0 mm 1 mps 704 mmHg 86%
    02:00 +19°C° 0 mm 1 mps 704 mmHg 86%
    03:00 +19°C° 0 mm 1 mps 704 mmHg 86%
    04:00 +19°C° 0 mm 1 mps 704 mmHg 85%
    05:00 +17°C° 0 mm 0 mps 704 mmHg 85%
    06:00 +21°C° 0 mm 1 mps 704 mmHg 76%
    07:00 +23°C° 0 mm 1 mps 705 mmHg 67%
    08:00 +25°C° 0 mm 1 mps 705 mmHg 58%
    09:00 +26°C° 0 mm 1 mps 705 mmHg 53%
    10:00 +28°C° 0 mm 2 mps 705 mmHg 48%
    11:00 +29°C° 0 mm 2 mps 705 mmHg 43%
    12:00 +30°C° 0 mm 3 mps 705 mmHg 43%
    13:00 +30°C° 0 mm 4 mps 705 mmHg 42%
    14:00 +32°C° 0 mm 4 mps 705 mmHg 42%
    15:00 +30°C° 0 mm 4 mps 705 mmHg 47%
    16:00 +28°C° 0 mm 4 mps 705 mmHg 53%
    17:00 +27°C° 0 mm 4 mps 704 mmHg 59%
    18:00 +25°C° 0 mm 3 mps 704 mmHg 67%
    19:00 +23°C° 0 mm 2 mps 704 mmHg 76%
    20:00 +21°C° 0 mm 1 mps 704 mmHg 85%
    21:00 +21°C° 0 mm 1 mps 704 mmHg 85%
    22:00 +21°C° 0 mm 1 mps 704 mmHg 85%
    23:00 +20°C° 0 mm 1 mps 704 mmHg 84%

    25 August, Sunday

    Time Temperature Precipitation Wind Pressure Humidity
    00:00 +20°C° 0 mm 1 mps 704 mmHg 84%
    01:00 +20°C° 0 mm 1 mps 704 mmHg 84%
    02:00 +20°C° 0 mm 1 mps 704 mmHg 83%
    03:00 +19°C° 0 mm 1 mps 703 mmHg 83%
    04:00 +19°C° 0 mm 1 mps 703 mmHg 84%
    05:00 +19°C° 0 mm 1 mps 703 mmHg 84%
    06:00 +21°C° 0 mm 1 mps 704 mmHg 75%
    07:00 +23°C° 0 mm 1 mps 704 mmHg 67%
    08:00 +25°C° 0 mm 1 mps 704 mmHg 58%
    09:00 +27°C° 0 mm 2 mps 704 mmHg 52%
    10:00 +29°C° 0 mm 3 mps 704 mmHg 46%
    11:00 +32°C° 0 mm 4 mps 705 mmHg 39%
    12:00 +32°C° 0 mm 4 mps 704 mmHg 40%
    13:00 +32°C° 0 mm 5 mps 704 mmHg 40%
    14:00 +32°C° 0 mm 6 mps 704 mmHg 41%
    15:00 +30°C° 0 mm 5 mps 704 mmHg 45%
    16:00 +28°C° 0 mm 5 mps 704 mmHg 50%
    17:00 +27°C° 0 mm 5 mps 703 mmHg 55%
    18:00 +25°C° 0 mm 4 mps 704 mmHg 64%
    19:00 +22°C° 0 mm 3 mps 704 mmHg 73%
    20:00 +20°C° 0 mm 2 mps 704 mmHg 82%
    21:00 +21°C° 0 mm 1 mps 704 mmHg 82%
    22:00 +20°C° 0 mm 1 mps 704 mmHg 83%
    23:00 +20°C° 0 mm 1 mps 704 mmHg 84%

    26 August, Monday

    Time Temperature Precipitation Wind Pressure Humidity
    00:00 +20°C° 0 mm 1 mps 704 mmHg 84%
    01:00 +20°C° 0 mm 1 mps 703 mmHg 84%
    02:00 +19°C° 0 mm 1 mps 703 mmHg 85%
    03:00 +19°C° 0 mm 1 mps 703 mmHg 85%
    04:00 +19°C° 0 mm 1 mps 704 mmHg 85%
    05:00 +19°C° 0 mm 1 mps 704 mmHg 86%
    06:00 +21°C° 0 mm 1 mps 704 mmHg 77%
    07:00 +23°C° 0 mm 1 mps 704 mmHg 68%
    08:00 +25°C° 0 mm 1 mps 705 mmHg 60%
    09:00 +27°C° 0 mm 3 mps 705 mmHg 52%
    10:00 +29°C° 0 mm 4 mps 705 mmHg 44%
    11:00 +32°C° 0 mm 5 mps 706 mmHg 36%
    12:00 +32°C° 0 mm 5 mps 706 mmHg 35%
    13:00 +32°C° 0 mm 6 mps 705 mmHg 33%
    14:00 +33°C° 0 mm 7 mps 705 mmHg 32%
    15:00 +30°C° 0 mm 6 mps 705 mmHg 37%
    16:00 +29°C° 0 mm 5 mps 705 mmHg 41%
    17:00 +28°C° 0 mm 5 mps 705 mmHg 45%
    18:00 +26°C° 0 mm 4 mps 705 mmHg 55%
    19:00 +22°C° 0 mm 3 mps 705 mmHg 65%
    20:00 +21°C° 0 mm 1 mps 705 mmHg 75%
    21:00 +21°C° 0 mm 1 mps 705 mmHg 77%
    22:00 +20°C° 0 mm 1 mps 705 mmHg 78%
    23:00 +20°C° 0 mm 1 mps 705 mmHg 80%
    Show more